GW0692 Weather Reports


Display with metric or nautical units.
time (UTC)temp
F
wind
direction
speed
MPH
gust
MPH
rain 1hr
in
rain 24hr
in
rain mn
in
humidity
%
barometer
mb
20260502215133 53 140 7.0 10.0 0.00 0.00 0.00 42 1023.2
20260502214631 54 162 4.0 5.0 0.00 0.00 0.00 43 1023.4
20260502214128 54 120 7.0 7.0 0.00 0.00 0.00 41 1023.4
20260502213625 54 29 5.0 7.0 0.00 0.00 0.00 41 1023.5
20260502213122 53 75 4.0 5.0 0.00 0.00 0.00 42 1023.4
20260502212621 54 138 4.0 5.0 0.00 0.00 0.00 42 1023.6
20260502212114 54 72 6.0 7.0 0.00 0.00 0.00 43 1023.5
20260502211609 55 16 6.0 9.0 0.00 0.00 0.00 42 1023.8
20260502211106 57 70 8.0 12.0 0.00 0.00 0.00 42 1023.8
20260502210603 57 268 1.0 2.0 0.00 0.00 0.00 43 1023.5
20260502210100 56 225 2.0 3.0 0.00 0.00 0.00 42 1024.0
20260502205556 55 130 5.0 7.0 0.00 0.00 0.00 42 1024.1
20260502205054 54 82 5.0 10.0 0.00 0.00 0.00 44 1024.1
20260502204550 55 182 2.0 3.0 0.00 0.00 0.00 41 1024.1
20260502204048 54 235 3.0 3.0 0.00 0.00 0.00 42 1024.1
20260502203545 53 61 5.0 5.0 0.00 0.00 0.00 43 1024.5
20260502203042 53 37 4.0 5.0 0.00 0.00 0.00 41 1024.4
20260502202538 53 243 2.0 3.0 0.00 0.00 0.00 44 1024.6
20260502202037 52 97 4.0 5.0 0.00 0.00 0.00 45 1024.4
20260502201532 53 56 8.0 9.0 0.00 0.00 0.00 44 1024.5
20260502201029 53 112 4.0 7.0 0.00 0.00 0.00 44 1024.3
20260502200525 54 70 3.0 7.0 0.00 0.00 0.00 41 1024.3
20260502200023 60 130 7.0 9.0 0.00 0.00 0.00 36 1024.5
20260502195521 58 209 3.0 5.0 0.00 0.00 0.00 37 1024.1
20260502195016 54 298 3.0 3.0 0.00 0.00 0.00 40 1024.4
20260502194513 53 254 2.0 3.0 0.00 0.00 0.00 40 1024.4
20260502194009 55 209 3.0 5.0 0.00 0.00 0.00 39 1024.5
20260502193507 55 236 1.0 2.0 0.00 0.00 0.00 39 1024.5
20260502193003 55 253 0.0 2.0 0.00 0.00 0.00 43 1024.6
20260502192459 56 245 3.0 3.0 0.00 0.00 0.00 43 1024.6
20260502191956 54 253 6.0 7.0 0.00 0.00 0.00 43 1024.9
20260502191453 54 68 4.0 9.0 0.00 0.00 0.00 46 1025.0
20260502190951 52 353 6.0 9.0 0.00 0.00 0.00 47 1024.9
20260502190448 51 29 3.0 3.0 0.00 0.00 0.00 47 1025.0
20260502185944 53 137 9.0 14.0 0.00 0.00 0.00 47 1025.0
20260502185440 55 91 4.0 5.0 0.00 0.00 0.00 44 1024.8
20260502184937 53 162 7.0 10.0 0.00 0.00 0.00 46 1025.0
20260502184432 55 97 7.0 10.0 0.00 0.00 0.00 42 1025.1
20260502183929 54 236 2.0 2.0 0.00 0.00 0.00 45 1025.3
20260502183425 52 120 11.0 14.0 0.00 0.00 0.00 45 1025.4
20260502182920 52 236 4.0 5.0 0.00 0.00 0.00 49 1025.4
20260502182416 51 128 3.0 3.0 0.00 0.00 0.00 49 1025.5
20260502181912 51 154 6.0 7.0 0.00 0.00 0.00 50 1025.4
20260502181411 51 102 6.0 7.0 0.00 0.00 0.00 47 1025.6
20260502180909 52 44 6.0 9.0 0.00 0.00 0.00 51 1025.4
20260502180406 53 208 3.0 5.0 0.00 0.00 0.00 50 1025.6
20260502170324 47 131 8.0 10.0 0.00 0.00 0.00 64 1025.8
20260502164312 47 139 5.0 5.0 0.00 0.00 0.00 67 1025.8
20260502163808 46 148 3.0 5.0 0.00 0.00 0.00 69 1026.1
20260502163304 45 181 4.0 7.0 0.00 0.00 0.00 72 1025.5
20260502162802 44 74 3.0 3.0 0.00 0.00 0.00 73 1025.8
20260502162259 44 83 5.0 7.0 0.00 0.00 0.00 75 1025.5
20260502161755 43 132 3.0 5.0 0.00 0.00 0.00 76 1025.6
20260502161251 43 59 7.0 9.0 0.00 0.00 0.00 74 1025.5
20260502160750 43 247 1.0 2.0 0.00 0.00 0.00 77 1025.5
20260502160249 44 74 4.0 5.0 0.00 0.00 0.00 75 1025.6
20260502152218 39 238 0.0 2.0 0.00 0.00 0.00 96 1025.3
20260502151715 39 198 3.0 3.0 0.00 0.00 0.00 99 1025.4
20260502151212 38 244 1.0 2.0 0.00 0.00 0.00 99 1025.1
20260502150709 38 110 4.0 5.0 0.00 0.00 0.00 99 1025.3
20260502150206 37 168 2.0 2.0 0.00 0.00 0.00 99 1025.4
20260502140130 36 316 2.0 2.0 0.00 0.00 0.00 99 1025.3
20260502130554 34 271 0.0 2.0 0.00 0.00 0.00 99 1024.5
20260502123538 34 251 0.0 2.0 0.00 0.00 0.00 99 1024.0
20260502123034 34 279 0.0 0.0 0.00 0.00 0.00 99 1024.1
20260502122531 34 203 2.0 2.0 0.00 0.00 0.00 99 1024.1
20260502122028 34 215 0.0 0.0 0.00 0.00 0.00 99 1024.1
20260502121526 34 243 1.0 2.0 0.00 0.00 0.00 99 1024.3
20260502121023 34 164 2.0 2.0 0.00 0.00 0.00 99 1024.1
20260502120519 34 235 0.0 0.0 0.00 0.00 0.00 99 1024.0
20260502115514 34 231 0.0 0.0 0.00 0.00 0.00 99 1024.3
20260502115010 34 238 0.0 0.0 0.00 0.00 0.00 99 1024.3
20260502114507 34 203 2.0 3.0 0.00 0.00 0.00 99 1024.1
20260502114003 34 239 0.0 0.0 0.00 0.00 0.00 99 1024.1
20260502113501 34 230 0.0 0.0 0.00 0.00 0.00 99 1024.1
20260502112959 34 181 0.0 0.0 0.00 0.00 0.00 99 1024.0
20260502112456 34 262 0.0 0.0 0.00 0.00 0.00 99 1024.1
20260502111954 34 276 0.0 0.0 0.00 0.00 0.00 99 1024.4
20260502111451 34 266 0.0 0.0 0.00 0.00 0.00 99 1024.3
20260502110949 34 239 2.0 2.0 0.00 0.00 0.00 99 1024.3
20260502110446 34 210 2.0 3.0 0.00 0.00 0.00 99 1024.1
20260502105943 34 159 3.0 3.0 0.00 0.00 0.00 99 1024.3
20260502105441 34 250 0.0 0.0 0.00 0.00 0.00 99 1024.3
20260502104938 34 221 1.0 2.0 0.00 0.00 0.00 99 1024.0
20260502104435 34 245 0.0 0.0 0.00 0.00 0.00 99 1024.0
20260502103932 34 236 1.0 2.0 0.00 0.00 0.00 99 1024.4
20260502103430 34 248 0.0 0.0 0.00 0.00 0.00 99 1024.1
20260502102927 34 253 0.0 0.0 0.00 0.00 0.00 99 1024.3
20260502102424 34 250 0.0 0.0 0.00 0.00 0.00 99 1024.4
20260502101921 34 251 0.0 0.0 0.00 0.00 0.00 99 1024.1
20260502101419 35 247 1.0 2.0 0.00 0.00 0.00 99 1024.4
20260502100917 35 248 0.0 0.0 0.00 0.00 0.00 99 1024.3
20260502100416 34 250 0.0 0.0 0.00 0.00 0.00 99 1024.0
20260502091350 34 217 1.0 2.0 0.00 0.00 0.00 99 1023.5
20260502090848 35 208 2.0 2.0 0.00 0.00 0.00 99 1023.8
20260502090344 35 245 0.0 0.0 0.00 0.00 0.00 99 1023.5
20260502071239 35 223 1.0 2.0 0.00 0.00 0.00 99 1024.0
20260502070737 35 239 2.0 2.0 0.00 0.00 0.00 99 1024.1
20260502070234 35 215 1.0 2.0 0.00 0.00 0.00 99 1024.1
20260502065733 35 238 0.0 0.0 0.00 0.00 0.00 99 1023.9
20260502065231 35 236 2.0 2.0 0.00 0.00 0.00 99 1024.3
20260502064729 35 245 1.0 2.0 0.00 0.00 0.00 99 1024.1
20260502064226 35 230 1.0 2.0 0.00 0.00 0.00 99 1024.0
20260502063724 35 227 0.0 0.0 0.00 0.00 0.00 99 1024.3
20260502063221 35 220 0.0 0.0 0.00 0.00 0.00 99 1024.4
20260502062718 35 201 2.0 3.0 0.00 0.00 0.00 99 1024.1
20260502062216 35 252 0.0 2.0 0.00 0.00 0.00 99 1024.3
20260502061714 35 245 0.0 0.0 0.00 0.00 0.00 99 1024.3
20260502061211 35 232 2.0 3.0 0.00 0.00 0.00 99 1023.9
20260502060706 35 239 3.0 5.0 0.00 0.00 0.00 99 1024.1
20260502060203 35 162 2.0 3.0 0.00 0.00 0.00 99 1024.3
20260502055701 35 247 2.0 3.0 0.00 0.32 0.32 99 1024.4
20260502055158 35 222 3.0 3.0 0.00 0.32 0.32 99 1024.0
20260502054658 35 250 2.0 2.0 0.00 0.32 0.32 99 1024.3
20260502054154 35 230 5.0 7.0 0.00 0.32 0.32 99 1024.3
20260502053652 35 242 4.0 5.0 0.00 0.32 0.32 99 1024.1
20260502053148 35 261 3.0 3.0 0.00 0.32 0.32 99 1023.9
20260502052647 35 275 5.0 7.0 0.00 0.32 0.32 99 1024.0
20260502052144 35 188 5.0 7.0 0.00 0.32 0.32 99 1023.9
20260502051643 35 208 5.0 7.0 0.00 0.32 0.32 99 1023.9
20260502051140 35 211 4.0 5.0 0.00 0.32 0.32 99 1023.6
20260502050636 35 144 2.0 3.0 0.00 0.32 0.32 99 1023.9
20260502050133 35 232 2.0 3.0 0.00 0.32 0.32 99 1024.0
20260502045630 35 181 4.0 5.0 0.00 0.32 0.32 99 1023.9
20260502045127 36 158 7.0 14.0 0.00 0.32 0.32 99 1023.8
20260502044623 36 220 4.0 7.0 0.00 0.32 0.32 99 1023.6
20260502044120 36 162 5.0 7.0 0.00 0.32 0.32 99 1023.8
20260502043618 36 199 4.0 5.0 0.00 0.32 0.32 99 1023.6
20260502043114 36 206 3.0 5.0 0.00 0.32 0.32 99 1023.9
20260502042609 36 191 5.0 7.0 0.00 0.32 0.32 99 1023.6
20260502042106 36 191 4.0 5.0 0.00 0.32 0.32 99 1023.8
20260502041604 36 110 9.0 14.0 0.00 0.32 0.32 99 1023.3
20260502041101 36 208 6.0 7.0 0.00 0.32 0.32 99 1023.3
20260502040557 36 149 10.0 12.0 0.00 0.32 0.32 99 1023.3
20260502040055 36 71 8.0 14.0 0.00 0.32 0.32 99 1023.4
20260502035550 36 130 5.0 7.0 0.00 0.32 0.32 99 1023.2
20260502035048 36 153 5.0 7.0 0.00 0.32 0.32 99 1023.2
20260502034546 36 180 3.0 5.0 0.00 0.32 0.32 99 1022.8
20260502034044 36 48 9.0 10.0 0.00 0.32 0.32 99 1022.5
20260502033542 36 132 9.0 14.0 0.00 0.32 0.32 99 1023.0
20260502033039 36 123 6.0 9.0 0.00 0.32 0.32 99 1023.2
20260502032535 36 155 8.0 14.0 0.00 0.32 0.32 99 1023.0
20260502032032 36 238 9.0 14.0 0.00 0.32 0.32 99 1023.0
20260502031530 36 133 9.0 12.0 0.00 0.32 0.32 99 1023.3
20260502031027 36 145 8.0 14.0 0.00 0.32 0.32 99 1023.3
20260502030526 36 135 6.0 9.0 0.00 0.32 0.32 99 1023.0
20260502030023 36 106 11.0 17.0 0.00 0.32 0.32 99 1023.0
20260502025520 36 144 11.0 14.0 0.00 0.32 0.32 99 1022.9
20260502025019 36 161 3.0 5.0 0.00 0.32 0.32 99 1022.9
20260502024515 36 159 5.0 9.0 0.00 0.32 0.32 99 1022.8
20260502024014 36 101 11.0 17.0 0.00 0.32 0.32 99 1022.5
20260502023511 36 111 7.0 12.0 0.00 0.32 0.32 99 1022.5
20260502023009 36 140 9.0 12.0 0.00 0.32 0.32 99 1022.4
20260502022505 36 107 9.0 14.0 0.00 0.32 0.32 99 1022.7
20260502022003 36 144 5.0 5.0 0.00 0.32 0.32 99 1022.4
20260502021500 36 94 5.0 9.0 0.00 0.32 0.32 99 1022.5
20260502020956 36 220 4.0 5.0 0.00 0.32 0.32 99 1022.4
20260502020455 36 131 7.0 14.0 0.00 0.32 0.32 99 1022.7
20260502015950 36 173 8.0 14.0 0.00 0.32 0.32 99 1022.3
20260502015449 36 138 10.0 12.0 0.00 0.32 0.32 99 1022.0
20260502014945 36 77 11.0 14.0 0.00 0.32 0.32 99 1022.2
20260502014442 36 70 11.0 14.0 0.00 0.32 0.32 99 1021.8
20260502013938 36 96 5.0 7.0 0.00 0.32 0.32 99 1021.8
20260502013434 36 174 9.0 10.0 0.00 0.32 0.32 99 1021.4
20260502012931 36 119 9.0 12.0 0.00 0.32 0.32 99 1021.3
20260502012428 37 140 9.0 12.0 0.00 0.32 0.32 99 1021.2
20260502011926 37 159 4.0 9.0 0.00 0.32 0.32 99 1021.2
20260502011422 37 166 2.0 3.0 0.00 0.32 0.32 99 1020.7
20260502010919 37 241 6.0 7.0 0.00 0.32 0.32 99 1020.5
20260502010415 37 158 5.0 7.0 0.00 0.32 0.32 99 1020.5
20260502005912 37 165 9.0 14.0 0.00 0.32 0.32 99 1020.7
20260502005410 37 160 7.0 10.0 0.00 0.32 0.32 99 1020.5
20260502004908 37 145 7.0 9.0 0.00 0.32 0.32 99 1020.5
20260502004403 37 121 5.0 7.0 0.00 0.32 0.32 99 1020.3
20260502003901 37 154 8.0 12.0 0.00 0.32 0.32 99 1020.7
20260502003358 37 128 6.0 9.0 0.00 0.32 0.32 99 1020.8
20260502002854 37 164 9.0 12.0 0.00 0.32 0.32 99 1020.5
20260502002351 37 147 13.0 15.0 0.00 0.32 0.32 99 1020.9
20260502001849 37 163 6.0 7.0 0.00 0.32 0.32 99 1020.9
20260502001346 37 107 9.0 10.0 0.00 0.32 0.32 99 1020.5
20260502000844 37 192 9.0 10.0 0.00 0.32 0.32 99 1020.8
20260502000342 37 126 7.0 14.0 0.00 0.32 0.32 99 1020.5
20260501235838 37 138 10.0 12.0 0.00 0.32 0.32 99 1020.5
20260501235333 37 206 6.0 9.0 0.00 0.32 0.32 99 1020.3
20260501234829 37 79 11.0 14.0 0.00 0.32 0.32 99 1020.8
20260501234326 37 142 12.0 14.0 0.00 0.32 0.32 99 1020.5
20260501233825 37 186 7.0 10.0 0.00 0.32 0.32 99 1020.5
20260501233322 37 202 6.0 12.0 0.00 0.32 0.32 98 1020.7
20260501232817 38 239 5.0 9.0 0.00 0.32 0.32 98 1020.7
20260501232315 37 129 9.0 12.0 0.00 0.32 0.32 98 1020.4
20260501231812 37 184 5.0 5.0 0.07 0.32 0.32 97 1020.4
20260501231310 37 174 7.0 12.0 0.07 0.32 0.32 96 1020.8
20260501230808 37 122 9.0 14.0 0.12 0.32 0.32 96 1020.7
20260501230306 38 169 5.0 9.0 0.05 0.31 0.31 94 1020.4
20260501225804 38 215 11.0 17.0 0.00 0.30 0.30 92 1019.2
20260501225305 38 196 5.0 7.0 0.00 0.30 0.30 92 1020.5
20260501224757 38 70 11.0 14.0 0.00 0.30 0.30 92 1020.7
20260501224255 38 174 10.0 12.0 0.00 0.30 0.30 92 1021.0
20260501223750 38 78 8.0 12.0 0.00 0.30 0.30 92 1020.3
20260501223247 39 117 9.0 12.0 0.00 0.30 0.30 91 1020.7
20260501222743 39 147 8.0 14.0 0.00 0.30 0.30 91 1020.3
20260501222241 39 148 9.0 12.0 0.00 0.30 0.30 90 1020.2
20260501221737 39 178 6.0 10.0 0.00 0.30 0.30 90 1020.2
20260501221235 39 248 7.0 10.0 0.00 0.30 0.30 90 1020.3
20260501220732 40 185 3.0 5.0 0.00 0.30 0.30 90 1020.7
20260501220229 39 145 7.0 9.0 0.00 0.30 0.30 90 1020.5
20260501215726 39 3 9.0 14.0 0.00 0.30 0.30 90 1020.2
20260501215222 39 142 5.0 7.0 0.00 0.30 0.30 90 1020.2